TimeCST,TemperatureF,Dew PointF,Humidity,Sea Level PressureIn,VisibilityMPH,Wind Direction,Wind SpeedMPH,Gust SpeedMPH,PrecipitationIn,Events,Conditions,WindDirDegrees,DateUTC
7:55 AM,50.9,42.6,73,30.27,10.0,NE,4.6,-,N/A,,Overcast,40,2013-01-08 13:55:00
7:58 AM,51.8,42.8,71,30.27,10.0,NE,6.9,-,N/A,,Overcast,50,2013-01-08 13:58:00
8:55 AM,54.5,44.2,68,30.28,10.0,East,4.6,-,N/A,,Mostly Cloudy,80,2013-01-08 14:55:00
9:34 AM,57.2,46.4,67,30.27,10.0,East,6.9,-,N/A,,Mostly Cloudy,80,2013-01-08 15:34:00
9:55 AM,57.9,46.8,66,30.29,10.0,East,4.6,-,N/A,,Overcast,100,2013-01-08 15:55:00
10:31 AM,59.0,48.2,67,30.26,10.0,ENE,5.8,-,N/A,,Overcast,60,2013-01-08 16:31:00
10:55 AM,59.7,48.2,66,30.27,10.0,Variable,3.5,-,N/A,,Overcast,0,2013-01-08 16:55:00
11:55 AM,60.3,49.3,67,30.25,10.0,Variable,2.3,-,N/A,,Overcast,0,2013-01-08 17:55:00
12:55 PM,61.5,50.7,68,30.22,10.0,NNE,4.6,-,N/A,,Overcast,20,2013-01-08 18:55:00
1:55 PM,61.5,50.7,68,30.21,10.0,North,3.5,-,N/A,,Overcast,10,2013-01-08 19:55:00
2:55 PM,62.1,51.4,68,30.21,10.0,North,3.5,-,N/A,,Overcast,10,2013-01-08 20:55:00
3:10 PM,62.6,51.8,68,30.19,10.0,North,3.5,-,N/A,,Overcast,350,2013-01-08 21:10:00
3:55 PM,62.4,52.3,70,30.21,10.0,NNW,4.6,-,N/A,,Overcast,340,2013-01-08 21:55:00
4:50 PM,60.8,53.6,77,30.18,10.0,NE,5.8,-,N/A,,Mostly Cloudy,50,2013-01-08 22:50:00
4:55 PM,61.2,53.1,75,30.20,10.0,NE,5.8,-,N/A,,Mostly Cloudy,40,2013-01-08 22:55:00
5:55 PM,57.2,52.3,84,30.20,10.0,NNW,3.5,-,N/A,,Mostly Cloudy,340,2013-01-08 23:55:00
6:37 PM,55.4,51.8,88,30.19,10.0,North,3.5,-,N/A,,Overcast,360,2013-01-09 00:37:00
6:55 PM,56.7,52.7,87,30.23,10.0,North,3.5,-,N/A,,Overcast,350,2013-01-09 00:55:00
7:55 PM,59.0,53.6,82,30.20,10.0,NE,3.5,-,N/A,,Mostly Cloudy,40,2013-01-09 01:55:00
8:55 PM,59.7,53.6,80,30.20,10.0,Calm,Calm,-,N/A,,Mostly Cloudy,0,2013-01-09 02:55:00
9:14 PM,59.0,53.6,82,30.19,10.0,NE,3.5,-,N/A,,Mostly Cloudy,50,2013-01-09 03:14:00
9:41 PM,59.0,53.6,82,30.19,10.0,East,5.8,-,N/A,,Mostly Cloudy,80,2013-01-09 03:41:00
9:56 PM,61.2,54.7,79,30.22,10.0,East,5.8,-,N/A,,Overcast,80,2013-01-09 03:56:00
10:26 PM,62.6,55.4,77,30.19,10.0,East,6.9,-,N/A,,Overcast,90,2013-01-09 04:26:00
10:55 PM,62.6,55.6,78,30.21,10.0,East,8.1,-,N/A,,Overcast,80,2013-01-09 04:55:00
11:55 PM,62.2,55.8,79,30.21,10.0,East,8.1,-,N/A,,Overcast,80,2013-01-09 05:55:00